,,,PA_Meas_PMT16A,,PR_Meas_QMR101_102,,RH_Meas_QMH101,,SR_Meas_QMS101,,TA_Meas_QMH101,,GenWind,,GenWind,
date,time,status,PA,status,PR,status,RH,status,SR,status,TA,status,DirAvg,status,SpdAvg,
2014-08-29, 00:00:04,VALID,1011.24,VALID,0,INVALID,136.417,VALID,0,VALID,23.7135,VALID,97,VALID,0,
2014-08-29, 00:01:04,VALID,1011.25,VALID,0,INVALID,136.448,VALID,0,VALID,23.6745,VALID,97,VALID,0,
2014-08-29, 00:02:04,VALID,1011.29,VALID,0,INVALID,136.455,VALID,0,VALID,23.6745,VALID,97,VALID,0,
2014-08-29, 00:03:04,VALID,1011.27,VALID,0,INVALID,136.501,VALID,0,VALID,23.655,VALID,97,VALID,0,
2014-08-29, 00:04:04,VALID,1011.28,VALID,0,INVALID,136.623,VALID,0,VALID,23.6356,VALID,97,VALID,0,
2014-08-29, 00:05:04,VALID,1011.27,VALID,0,INVALID,136.722,VALID,0,VALID,23.6143,VALID,97,VALID,0,
2014-08-29, 00:06:04,VALID,1011.27,VALID,0,INVALID,136.73,VALID,0,VALID,23.6356,VALID,97,VALID,0,
2014-08-29, 00:07:04,VALID,1011.25,VALID,0,INVALID,136.608,VALID,0,VALID,23.6161,VALID,97,VALID,0,
2014-08-29, 00:08:04,VALID,1011.25,VALID,0,INVALID,136.592,VALID,0,VALID,23.6161,VALID,97,VALID,0,
2014-08-29, 00:09:04,VALID,1011.22,VALID,0,INVALID,136.585,VALID,0,VALID,23.6161,VALID,97,VALID,0,
2014-08-29, 00:10:04,VALID,1011.2,VALID,0,INVALID,136.592,VALID,0,VALID,23.6161,VALID,97,VALID,0,
2014-08-29, 00:11:04,VALID,1011.2,VALID,0,INVALID,136.608,VALID,0,VALID,23.6161,VALID,97,VALID,0,
2014-08-29, 00:12:04,VALID,1011.2,VALID,0,INVALID,136.585,VALID,0,VALID,23.6161,VALID,97,VALID,0,
2014-08-29, 00:13:04,VALID,1011.19,VALID,0,INVALID,136.608,VALID,0,VALID,23.6161,VALID,97,VALID,0,
2014-08-29, 00:14:04,VALID,1011.19,VALID,0,INVALID,136.608,VALID,0,VALID,23.6161,VALID,97,VALID,0,
2014-08-29, 00:15:04,VALID,1011.2,VALID,0,INVALID,136.585,VALID,0,VALID,23.6356,VALID,97,VALID,0,
2014-08-29, 00:16:04,VALID,1011.24,VALID,0,INVALID,136.539,VALID,0,VALID,23.6338,VALID,97,VALID,0,
2014-08-29, 00:17:04,VALID,1011.22,VALID,0,INVALID,136.554,VALID,0,VALID,23.655,VALID,97,VALID,0,
2014-08-29, 00:18:04,VALID,1011.26,VALID,0,INVALID,136.554,VALID,0,VALID,23.6143,VALID,97,VALID,0,
2014-08-29, 00:19:04,VALID,1011.26,VALID,0,INVALID,136.57,VALID,0,VALID,23.6356,VALID,97,VALID,0,
2014-08-29, 00:20:04,VALID,1011.28,VALID,0,INVALID,136.577,VALID,0,VALID,23.6763,VALID,97,VALID,0,
2014-08-29, 00:21:04,VALID,1011.28,VALID,0,INVALID,136.547,VALID,0,VALID,23.655,VALID,97,VALID,0,
2014-08-29, 00:22:04,VALID,1011.28,VALID,0,INVALID,136.585,VALID,0,VALID,23.6745,VALID,97,VALID,0,
2014-08-29, 00:23:04,VALID,1011.29,VALID,0,INVALID,136.631,VALID,0,VALID,23.694,VALID,97,VALID,0,
2014-08-29, 00:24:04,VALID,1011.27,VALID,0,INVALID,136.615,VALID,0,VALID,23.733,VALID,97,VALID,0,
2014-08-29, 00:25:04,VALID,1011.25,VALID,0,INVALID,136.608,VALID,0,VALID,23.7525,VALID,97,VALID,0,
2014-08-29, 00:26:04,VALID,1011.22,VALID,0,INVALID,136.57,VALID,0.112112,VALID,23.7701,VALID,97,VALID,0,
2014-08-29, 00:27:04,VALID,1011.22,VALID,0,INVALID,136.516,VALID,0,VALID,23.772,VALID,97,VALID,0,
2014-08-29, 00:28:04,VALID,1011.2,VALID,0,INVALID,136.577,VALID,0,VALID,23.7914,VALID,97,VALID,0,
2014-08-29, 00:29:04,VALID,1011.19,VALID,0,INVALID,136.585,VALID,0,VALID,23.8109,VALID,97,VALID,0,
2014-08-29, 00:30:04,VALID,1011.17,VALID,0,INVALID,136.577,VALID,0,VALID,23.8304,VALID,97,VALID,0,
2014-08-29, 00:31:04,VALID,1011.21,VALID,0,INVALID,136.646,VALID,0,VALID,23.8499,VALID,97,VALID,0,
2014-08-29, 00:32:04,VALID,1011.19,VALID,0,INVALID,136.6,VALID,0,VALID,23.8286,VALID,97,VALID,0,
2014-08-29, 00:33:04,VALID,1011.21,VALID,0,INVALID,136.615,VALID,0,VALID,23.8694,VALID,97,VALID,0,
2014-08-29, 00:34:04,VALID,1011.2,VALID,0,INVALID,136.707,VALID,0,VALID,23.9084,VALID,97,VALID,0,
2014-08-29, 00:35:04,VALID,1011.22,VALID,0,INVALID,136.615,VALID,0,VALID,23.9084,VALID,97,VALID,0,
2014-08-29, 00:36:04,VALID,1011.2,VALID,0,INVALID,136.562,VALID,0,VALID,23.9278,VALID,97,VALID,0,
2014-08-29, 00:37:04,VALID,1011.23,VALID,0,INVALID,136.295,VALID,0,VALID,23.9084,VALID,97,VALID,0,
2014-08-29, 00:38:04,VALID,1011.21,VALID,0,INVALID,136.226,VALID,0,VALID,23.9084,VALID,97,VALID,0,
2014-08-29, 00:39:04,VALID,1011.19,VALID,0,INVALID,136.242,VALID,0,VALID,23.9278,VALID,97,VALID,0,
2014-08-29, 00:40:04,VALID,1011.15,VALID,0,INVALID,136.348,VALID,0,VALID,23.9084,VALID,98,VALID,0,
2014-08-29, 00:41:04,VALID,1011.15,VALID,0,INVALID,136.265,VALID,0,VALID,23.9278,VALID,98,VALID,0,
2014-08-29, 00:42:04,VALID,1011.14,VALID,0,INVALID,136.326,VALID,0,VALID,23.9084,VALID,97,VALID,0,
2014-08-29, 00:43:04,VALID,1011.13,VALID,0,INVALID,136.409,VALID,0,VALID,23.9084,VALID,97,VALID,0,
2014-08-29, 00:44:04,VALID,1011.1,VALID,0,INVALID,136.661,VALID,0,VALID,23.9278,VALID,98,VALID,0,
2014-08-29, 00:45:04,VALID,1011.1,VALID,0,INVALID,136.692,VALID,0,VALID,23.9473,VALID,99,VALID,0,
2014-08-29, 00:46:04,VALID,1011.08,VALID,0,INVALID,136.654,VALID,0,VALID,23.9473,VALID,99,VALID,0,
2014-08-29, 00:47:04,VALID,1011.11,VALID,0,INVALID,136.737,VALID,0,VALID,23.9455,VALID,99,VALID,0,
2014-08-29, 00:48:04,VALID,1011.11,VALID,0,INVALID,136.737,VALID,0.112112,VALID,23.965,VALID,99,VALID,0,
2014-08-29, 00:49:04,VALID,1011.12,VALID,0,INVALID,136.783,VALID,0,VALID,23.9845,VALID,99,VALID,0,
2014-08-29, 00:50:04,VALID,1011.14,VALID,0,INVALID,136.577,VALID,0,VALID,24.0058,VALID,99,VALID,0,
2014-08-29, 00:51:04,VALID,1011.17,VALID,0,INVALID,136.448,VALID,0.112112,VALID,24.0253,VALID,99,VALID,0,
2014-08-29, 00:52:04,VALID,1011.18,VALID,0,INVALID,136.364,VALID,0,VALID,24.0448,VALID,99,VALID,0,
2014-08-29, 00:53:04,VALID,1011.18,VALID,0,INVALID,136.402,VALID,0,VALID,24.0643,VALID,102,VALID,0,
2014-08-29, 00:54:04,VALID,1011.18,VALID,0,INVALID,136.333,VALID,0,VALID,24.0643,VALID,117,VALID,0,
2014-08-29, 00:55:04,VALID,1011.15,VALID,0,INVALID,136.204,VALID,0,VALID,24.0837,VALID,120,VALID,0,
2014-08-29, 00:56:04,VALID,1011.13,VALID,0,INVALID,135.868,VALID,0,VALID,24.0837,VALID,132,VALID,0,
2014-08-29, 00:57:04,VALID,1011.12,VALID,0,INVALID,135.708,VALID,0,VALID,24.1032,VALID,155,VALID,0,
2014-08-29, 00:58:04,VALID,1011.09,VALID,0,INVALID,135.433,VALID,0,VALID,24.1032,VALID,155,VALID,0,
2014-08-29, 00:59:04,VALID,1011.07,VALID,0,INVALID,135.227,VALID,0,VALID,24.1227,VALID,143,VALID,0,
2014-08-29, 01:00:04,VALID,1011.05,VALID,0,INVALID,134.983,VALID,0,VALID,24.1227,VALID,117,VALID,0,
2014-08-29, 01:01:04,VALID,1011.07,VALID,0,INVALID,134.831,VALID,0.112112,VALID,24.1227,VALID,139,VALID,0,
2014-08-29, 01:02:04,VALID,1011.08,VALID,0,INVALID,134.747,VALID,0,VALID,24.1014,VALID,139,VALID,0,
2014-08-29, 01:03:04,VALID,1011.09,VALID,0,INVALID,135.105,VALID,0,VALID,24.1422,VALID,139,VALID,0,
2014-08-29, 01:04:04,VALID,1011.05,VALID,0,INVALID,135.052,VALID,0,VALID,24.1227,VALID,139,VALID,0,
2014-08-29, 01:05:04,VALID,1011.08,VALID,0,INVALID,135.182,VALID,0,VALID,24.1422,VALID,139,VALID,0,
2014-08-29, 01:06:04,VALID,1011.07,VALID,0,INVALID,134.671,VALID,0.112112,VALID,24.1422,VALID,139,VALID,0,
2014-08-29, 01:07:04,VALID,1011.1,VALID,0,INVALID,134.351,VALID,0,VALID,24.1422,VALID,139,VALID,0,
2014-08-29, 01:08:04,VALID,1011.1,VALID,0,INVALID,134.701,VALID,0,VALID,24.1422,VALID,139,VALID,0,
2014-08-29, 01:09:04,VALID,1011.1,VALID,0,INVALID,135.25,VALID,0,VALID,24.1617,VALID,139,VALID,0,
2014-08-29, 01:10:04,VALID,1011.1,VALID,0,INVALID,135.014,VALID,0,VALID,24.1617,VALID,139,VALID,0,
2014-08-29, 01:11:04,VALID,1011.08,VALID,0,INVALID,134.389,VALID,0,VALID,24.1422,VALID,139,VALID,0,
2014-08-29, 01:12:04,VALID,1011.06,VALID,0,INVALID,134.312,VALID,0.112112,VALID,24.1617,VALID,139,VALID,0,
2014-08-29, 01:13:04,VALID,1011.03,VALID,0,INVALID,133.954,VALID,0,VALID,24.1617,VALID,139,VALID,0,
2014-08-29, 01:14:04,VALID,1011.01,VALID,0,INVALID,133.596,VALID,0,VALID,24.1422,VALID,139,VALID,0,
2014-08-29, 01:15:04,VALID,1011.01,VALID,0,INVALID,133.672,VALID,0,VALID,24.1422,VALID,139,VALID,0,
2014-08-29, 01:16:04,VALID,1010.97,VALID,0,INVALID,134.686,VALID,0,VALID,24.1422,VALID,139,VALID,0,
2014-08-29, 01:17:04,VALID,1010.94,VALID,0,INVALID,134.701,VALID,0,VALID,24.1422,VALID,139,VALID,0,
2014-08-29, 01:18:04,VALID,1010.95,VALID,0,INVALID,135.166,VALID,0,VALID,24.1422,VALID,139,VALID,0,
2014-08-29, 01:19:04,VALID,1010.93,VALID,0,INVALID,135.227,VALID,0,VALID,24.1617,VALID,139,VALID,0,
2014-08-29, 01:20:04,VALID,1010.88,VALID,0,INVALID,135.616,VALID,0,VALID,24.1617,VALID,139,VALID,0,
2014-08-29, 01:21:04,VALID,1010.85,VALID,0,INVALID,135.441,VALID,0,VALID,24.1422,VALID,139,VALID,0,
2014-08-29, 01:22:04,VALID,1010.82,VALID,0,INVALID,135.243,VALID,0,VALID,24.1227,VALID,139,VALID,0,
2014-08-29, 01:23:04,VALID,1010.84,VALID,0,INVALID,133.855,VALID,0,VALID,24.1032,VALID,139,VALID,0,
2014-08-29, 01:24:04,VALID,1010.83,VALID,0,INVALID,134.076,VALID,0,VALID,24.1032,VALID,139,VALID,0,
2014-08-29, 01:25:04,VALID,1010.82,VALID,0,INVALID,134.488,VALID,0.112112,VALID,24.0643,VALID,139,VALID,0,
2014-08-29, 01:26:04,VALID,1010.82,VALID,0,INVALID,135.243,VALID,0,VALID,24.0643,VALID,139,VALID,0,
2014-08-29, 01:27:04,VALID,1010.78,VALID,0,INVALID,135.99,VALID,0,VALID,24.0643,VALID,139,VALID,0,
2014-08-29, 01:28:04,VALID,1010.76,VALID,0,INVALID,136.592,VALID,0,VALID,24.0856,VALID,139,VALID,0,
2014-08-29, 01:29:04,VALID,1010.77,VALID,0,INVALID,136.554,VALID,0,VALID,24.0448,VALID,139,VALID,0,
2014-08-29, 01:30:04,VALID,1010.7,VALID,0,INVALID,136.478,VALID,0,VALID,24.0253,VALID,139,VALID,0,
2014-08-29, 01:31:04,VALID,1010.72,VALID,0,INVALID,136.234,VALID,0,VALID,24.0058,VALID,139,VALID,0,
2014-08-29, 01:32:04,VALID,1010.71,VALID,0.5,INVALID,136.379,VALID,0,VALID,23.9863,VALID,139,VALID,0,
2014-08-29, 01:33:04,VALID,1010.69,VALID,0,INVALID,136.539,VALID,0,VALID,23.9863,VALID,139,VALID,0,
2014-08-29, 01:34:04,VALID,1010.69,VALID,0,INVALID,136.776,VALID,0,VALID,24.0058,VALID,139,VALID,0,
2014-08-29, 01:35:04,VALID,1010.67,VALID,0,INVALID,136.821,VALID,0,VALID,23.9863,VALID,139,VALID,0,
2014-08-29, 01:36:04,VALID,1010.67,VALID,0,INVALID,136.882,VALID,0,VALID,23.9668,VALID,139,VALID,0,
2014-08-29, 01:37:04,VALID,1010.65,VALID,0,INVALID,136.913,VALID,0,VALID,23.9686,VALID,139,VALID,0,
2014-08-29, 01:38:04,VALID,1010.61,VALID,0,INVALID,136.951,VALID,0,VALID,23.9278,VALID,139,VALID,0,
2014-08-29, 01:39:04,VALID,1010.58,VALID,0,INVALID,136.989,VALID,0,VALID,23.9278,VALID,139,VALID,0,
2014-08-29, 01:40:04,VALID,1010.58,VALID,0,INVALID,136.928,VALID,0,VALID,23.9278,VALID,139,VALID,0,
2014-08-29, 01:41:04,VALID,1010.59,VALID,0,INVALID,136.898,VALID,0,VALID,23.9102,VALID,139,VALID,0,
2014-08-29, 01:42:04,VALID,1010.52,VALID,0,INVALID,136.89,VALID,0,VALID,23.8907,VALID,139,VALID,0,
2014-08-29, 01:43:04,VALID,1010.52,VALID,0,INVALID,136.898,VALID,0,VALID,23.8694,VALID,139,VALID,0,
2014-08-29, 01:44:04,VALID,1010.53,VALID,0,INVALID,136.837,VALID,0,VALID,23.8907,VALID,139,VALID,0,
2014-08-29, 01:45:04,VALID,1010.48,VALID,0,INVALID,136.737,VALID,0,VALID,23.8694,VALID,139,VALID,0,
2014-08-29, 01:46:04,VALID,1010.49,VALID,0,INVALID,136.676,VALID,0.112112,VALID,23.8481,VALID,139,VALID,0,
2014-08-29, 01:47:04,VALID,1010.46,VALID,0,INVALID,136.592,VALID,0,VALID,23.8499,VALID,139,VALID,0,
2014-08-29, 01:48:04,VALID,1010.44,VALID,0,INVALID,136.531,VALID,0,VALID,23.8304,VALID,139,VALID,0,
2014-08-29, 01:49:04,VALID,1010.46,VALID,0,INVALID,136.455,VALID,0,VALID,23.8304,VALID,139,VALID,0,
2014-08-29, 01:50:04,VALID,1010.46,VALID,0,INVALID,136.425,VALID,0,VALID,23.8304,VALID,139,VALID,0,
2014-08-29, 01:51:04,VALID,1010.48,VALID,0,INVALID,136.356,VALID,0.112112,VALID,23.8304,VALID,139,VALID,0,
2014-08-29, 01:52:04,VALID,1010.49,VALID,0,INVALID,136.249,VALID,0,VALID,23.8517,VALID,139,VALID,0,
2014-08-29, 01:53:04,VALID,1010.47,VALID,0,INVALID,136.173,VALID,0,VALID,23.8109,VALID,139,VALID,0,
2014-08-29, 01:54:04,VALID,1010.44,VALID,0,INVALID,136.112,VALID,0,VALID,23.8304,VALID,139,VALID,0,
2014-08-29, 01:55:04,VALID,1010.41,VALID,0,INVALID,136.043,VALID,0,VALID,23.8109,VALID,139,VALID,0,
2014-08-29, 01:56:04,VALID,1010.4,VALID,0,INVALID,135.975,VALID,0,VALID,23.8304,VALID,139,VALID,0,
2014-08-29, 01:57:04,VALID,1010.34,VALID,0,INVALID,135.99,VALID,0,VALID,23.8127,VALID,139,VALID,0,
2014-08-29, 01:58:04,VALID,1010.3,VALID,0,INVALID,136.059,VALID,0,VALID,23.772,VALID,139,VALID,0,
2014-08-29, 01:59:04,VALID,1010.26,VALID,0,INVALID,136.104,VALID,0,VALID,23.7932,VALID,139,VALID,0,
2014-08-29, 02:00:04,VALID,1010.19,VALID,0,INVALID,136.12,VALID,0,VALID,23.772,VALID,139,VALID,0,
2014-08-29, 02:01:04,VALID,1010.17,VALID,0,INVALID,136.043,VALID,0,VALID,23.772,VALID,139,VALID,0,
2014-08-29, 02:02:04,VALID,1010.15,VALID,0,INVALID,136.036,VALID,0,VALID,23.7914,VALID,139,VALID,0,
2014-08-29, 02:03:04,VALID,1010.15,VALID,0,INVALID,136.036,VALID,0,VALID,23.772,VALID,139,VALID,0,
2014-08-29, 02:04:04,VALID,1010.12,VALID,0,INVALID,136.028,VALID,0,VALID,23.772,VALID,139,VALID,0,
2014-08-29, 02:05:04,VALID,1010.16,VALID,0,INVALID,135.982,VALID,0,VALID,23.7914,VALID,139,VALID,0,
2014-08-29, 02:06:04,VALID,1010.17,VALID,0,INVALID,135.883,VALID,0,VALID,23.8109,VALID,139,VALID,0,
2014-08-29, 02:07:04,VALID,1010.17,VALID,0,INVALID,135.792,VALID,0,VALID,23.7914,VALID,139,VALID,0,
2014-08-29, 02:08:04,VALID,1010.21,VALID,0,INVALID,135.677,VALID,0,VALID,23.8109,VALID,139,VALID,0,
2014-08-29, 02:09:04,VALID,1010.22,VALID,0,INVALID,135.647,VALID,0,VALID,23.7914,VALID,139,VALID,0,
2014-08-29, 02:10:04,VALID,1010.25,VALID,0,INVALID,135.632,VALID,0,VALID,23.772,VALID,139,VALID,0,
2014-08-29, 02:11:04,VALID,1010.31,VALID,0,INVALID,135.586,VALID,0,VALID,23.7914,VALID,139,VALID,0,
2014-08-29, 02:12:04,VALID,1010.32,VALID,0,INVALID,135.54,VALID,0,VALID,23.7507,VALID,139,VALID,0,
2014-08-29, 02:13:04,VALID,1010.34,VALID,0,INVALID,135.487,VALID,0,VALID,23.7914,VALID,139,VALID,0,
2014-08-29, 02:14:04,VALID,1010.34,VALID,0,INVALID,135.418,VALID,0,VALID,23.7914,VALID,139,VALID,0,
2014-08-29, 02:15:04,VALID,1010.38,VALID,0,INVALID,135.357,VALID,0,VALID,23.7914,VALID,139,VALID,0,
2014-08-29, 02:16:04,VALID,1010.38,VALID,0,INVALID,135.342,VALID,0,VALID,23.8109,VALID,139,VALID,0,
2014-08-29, 02:17:04,VALID,1010.38,VALID,0,INVALID,135.296,VALID,0.112112,VALID,23.7914,VALID,139,VALID,0,
2014-08-29, 02:18:04,VALID,1010.39,VALID,0,INVALID,135.227,VALID,0.112112,VALID,23.8109,VALID,139,VALID,0,
2014-08-29, 02:19:04,VALID,1010.38,VALID,0,INVALID,135.113,VALID,0,VALID,23.7896,VALID,139,VALID,0,
2014-08-29, 02:20:04,VALID,1010.39,VALID,0,INVALID,135.083,VALID,0,VALID,23.8109,VALID,139,VALID,0,
2014-08-29, 02:21:04,VALID,1010.37,VALID,0,INVALID,135.09,VALID,0,VALID,23.7914,VALID,139,VALID,0,
2014-08-29, 02:22:04,VALID,1010.4,VALID,0,INVALID,135.174,VALID,0.112112,VALID,23.7914,VALID,139,VALID,0,
2014-08-29, 02:23:04,VALID,1010.41,VALID,0,INVALID,135.212,VALID,0,VALID,23.7701,VALID,139,VALID,0,
2014-08-29, 02:24:04,VALID,1010.43,VALID,0,INVALID,135.258,VALID,0,VALID,23.8109,VALID,139,VALID,0,
2014-08-29, 02:25:04,VALID,1010.4,VALID,0,INVALID,135.212,VALID,0,VALID,23.8091,VALID,139,VALID,0,
2014-08-29, 02:26:04,VALID,1010.4,VALID,0,INVALID,135.197,VALID,0,VALID,23.8304,VALID,139,VALID,0,
2014-08-29, 02:27:04,VALID,1010.43,VALID,0,INVALID,135.205,VALID,0,VALID,23.8109,VALID,139,VALID,0,
2014-08-29, 02:28:04,VALID,1010.42,VALID,0,INVALID,135.372,VALID,0.112112,VALID,23.8109,VALID,139,VALID,0,
2014-08-29, 02:29:04,VALID,1010.42,VALID,0,INVALID,135.479,VALID,0,VALID,23.8091,VALID,139,VALID,0,
2014-08-29, 02:30:04,VALID,1010.44,VALID,0,INVALID,135.54,VALID,0,VALID,23.8304,VALID,139,VALID,0,
2014-08-29, 02:31:04,VALID,1010.44,VALID,0,INVALID,135.601,VALID,0,VALID,23.8304,VALID,139,VALID,0,
2014-08-29, 02:32:04,VALID,1010.44,VALID,0,INVALID,135.609,VALID,0,VALID,23.8499,VALID,139,VALID,0,
2014-08-29, 02:33:04,VALID,1010.46,VALID,0,INVALID,135.616,VALID,0,VALID,23.8499,VALID,139,VALID,0,
2014-08-29, 02:34:04,VALID,1010.46,VALID,0,INVALID,135.769,VALID,0.112112,VALID,23.8499,VALID,139,VALID,0,
2014-08-29, 02:35:04,VALID,1010.47,VALID,0,INVALID,135.868,VALID,0.112112,VALID,23.8499,VALID,139,VALID,0,
2014-08-29, 02:36:04,VALID,1010.48,VALID,0,INVALID,135.96,VALID,0,VALID,23.8499,VALID,139,VALID,0,
2014-08-29, 02:37:04,VALID,1010.49,VALID,0,INVALID,136.043,VALID,0.112112,VALID,23.8499,VALID,139,VALID,0,
2014-08-29, 02:38:04,VALID,1010.49,VALID,0,INVALID,136.104,VALID,0,VALID,23.8499,VALID,139,VALID,0,
2014-08-29, 02:39:04,VALID,1010.48,VALID,0,INVALID,136.097,VALID,0,VALID,23.8499,VALID,139,VALID,0,
2014-08-29, 02:40:04,VALID,1010.53,VALID,0,INVALID,136.158,VALID,0.112112,VALID,23.8499,VALID,139,VALID,0,
2014-08-29, 02:41:04,VALID,1010.55,VALID,0,INVALID,136.158,VALID,0,VALID,23.8286,VALID,139,VALID,0,
2014-08-29, 02:42:04,VALID,1010.58,VALID,0,INVALID,136.127,VALID,0,VALID,23.8694,VALID,139,VALID,0,
2014-08-29, 02:43:04,VALID,1010.6,VALID,0,INVALID,136.013,VALID,0,VALID,23.8889,VALID,139,VALID,0,
2014-08-29, 02:44:04,VALID,1010.59,VALID,0,INVALID,135.906,VALID,0,VALID,23.9084,VALID,139,VALID,0,
2014-08-29, 02:45:04,VALID,1010.59,VALID,0,INVALID,135.807,VALID,0,VALID,23.8889,VALID,139,VALID,0,
2014-08-29, 02:46:04,VALID,1010.6,VALID,0,INVALID,135.761,VALID,0,VALID,23.8889,VALID,139,VALID,0,
2014-08-29, 02:47:04,VALID,1010.59,VALID,0,INVALID,135.67,VALID,0,VALID,23.9084,VALID,139,VALID,0,
2014-08-29, 02:48:04,VALID,1010.58,VALID,0,INVALID,135.685,VALID,0,VALID,23.8889,VALID,139,VALID,0,
2014-08-29, 02:49:04,VALID,1010.53,VALID,0,INVALID,135.685,VALID,0,VALID,23.8889,VALID,139,VALID,0,
2014-08-29, 02:50:04,VALID,1010.52,VALID,0,INVALID,135.624,VALID,0,VALID,23.8889,VALID,139,VALID,0,
2014-08-29, 02:51:04,VALID,1010.53,VALID,0,INVALID,135.655,VALID,0,VALID,23.8889,VALID,139,VALID,0,
2014-08-29, 02:52:04,VALID,1010.53,VALID,0,INVALID,135.655,VALID,0,VALID,23.9084,VALID,139,VALID,0,
2014-08-29, 02:53:04,VALID,1010.53,VALID,0,INVALID,135.685,VALID,0,VALID,23.9084,VALID,139,VALID,0,
2014-08-29, 02:54:04,VALID,1010.5,VALID,0,INVALID,135.723,VALID,0,VALID,23.9084,VALID,139,VALID,0,
2014-08-29, 02:55:04,VALID,1010.53,VALID,0,INVALID,135.799,VALID,0,VALID,23.9084,VALID,139,VALID,0,
2014-08-29, 02:56:04,VALID,1010.55,VALID,0,INVALID,135.761,VALID,0,VALID,23.9084,VALID,139,VALID,0,
2014-08-29, 02:57:04,VALID,1010.52,VALID,0,INVALID,135.83,VALID,0,VALID,23.9084,VALID,139,VALID,0,
2014-08-29, 02:58:04,VALID,1010.51,VALID,0,INVALID,135.998,VALID,0,VALID,23.9084,VALID,139,VALID,0,
2014-08-29, 02:59:04,VALID,1010.52,VALID,0,INVALID,136.021,VALID,0,VALID,23.9084,VALID,139,VALID,0,
2014-08-29, 03:00:04,VALID,1010.54,VALID,0,INVALID,136.15,VALID,0,VALID,23.8889,VALID,139,VALID,0,
2014-08-29, 03:01:04,VALID,1010.52,VALID,0,INVALID,136.295,VALID,0,VALID,23.8889,VALID,139,VALID,0,
2014-08-29, 03:02:04,VALID,1010.5,VALID,0,INVALID,136.394,VALID,0,VALID,23.8889,VALID,139,VALID,0,
2014-08-29, 03:03:04,VALID,1010.5,VALID,0,INVALID,136.478,VALID,0,VALID,23.8676,VALID,139,VALID,0,
2014-08-29, 03:04:04,VALID,1010.47,VALID,0,INVALID,136.486,VALID,0,VALID,23.8889,VALID,139,VALID,0,
2014-08-29, 03:05:04,VALID,1010.45,VALID,0,INVALID,136.623,VALID,0,VALID,23.8676,VALID,139,VALID,0,
2014-08-29, 03:06:04,VALID,1010.45,VALID,0,INVALID,136.699,VALID,0,VALID,23.8889,VALID,139,VALID,0,
2014-08-29, 03:07:04,VALID,1010.45,VALID,0,INVALID,136.783,VALID,0.112112,VALID,23.8694,VALID,139,VALID,0,
2014-08-29, 03:08:04,VALID,1010.44,VALID,0,INVALID,136.814,VALID,0.112112,VALID,23.8694,VALID,139,VALID,0,
2014-08-29, 03:09:04,VALID,1010.42,VALID,0,INVALID,136.867,VALID,0,VALID,23.8694,VALID,139,VALID,0,
2014-08-29, 03:10:04,VALID,1010.42,VALID,0,INVALID,136.89,VALID,0,VALID,23.8499,VALID,139,VALID,0,
2014-08-29, 03:11:04,VALID,1010.39,VALID,0,INVALID,136.898,VALID,0,VALID,23.8499,VALID,139,VALID,0,
2014-08-29, 03:12:04,VALID,1010.39,VALID,0,INVALID,136.882,VALID,0,VALID,23.8499,VALID,139,VALID,0,
2014-08-29, 03:13:04,VALID,1010.39,VALID,0,INVALID,136.837,VALID,0.112112,VALID,23.8499,VALID,139,VALID,0,
2014-08-29, 03:14:04,VALID,1010.39,VALID,0,INVALID,136.76,VALID,0,VALID,23.8694,VALID,139,VALID,0,
2014-08-29, 03:15:04,VALID,1010.41,VALID,0,INVALID,136.669,VALID,0,VALID,23.8517,VALID,139,VALID,0,
2014-08-29, 03:16:04,VALID,1010.42,VALID,0,INVALID,136.638,VALID,0,VALID,23.8304,VALID,139,VALID,0,
2014-08-29, 03:17:04,VALID,1010.43,VALID,0,INVALID,136.585,VALID,0.112112,VALID,23.8304,VALID,139,VALID,0,
2014-08-29, 03:18:04,VALID,1010.41,VALID,0,INVALID,136.577,VALID,0.112112,VALID,23.7896,VALID,139,VALID,0,
2014-08-29, 03:19:04,VALID,1010.41,VALID,0,INVALID,136.585,VALID,0,VALID,23.8109,VALID,139,VALID,0,
2014-08-29, 03:20:04,VALID,1010.43,VALID,0,INVALID,136.516,VALID,0.112112,VALID,23.7914,VALID,139,VALID,0,
2014-08-29, 03:21:04,VALID,1010.46,VALID,0,INVALID,136.47,VALID,0,VALID,23.7914,VALID,139,VALID,0,
2014-08-29, 03:22:04,VALID,1010.48,VALID,0,INVALID,136.425,VALID,0,VALID,23.772,VALID,139,VALID,0,
2014-08-29, 03:23:04,VALID,1010.52,VALID,0,INVALID,136.387,VALID,0,VALID,23.7525,VALID,139,VALID,0,
2014-08-29, 03:24:04,VALID,1010.54,VALID,0,INVALID,136.265,VALID,0,VALID,23.7525,VALID,139,VALID,0,
2014-08-29, 03:25:04,VALID,1010.59,VALID,0,INVALID,136.196,VALID,0,VALID,23.733,VALID,139,VALID,0,
2014-08-29, 03:26:04,VALID,1010.62,VALID,0,INVALID,136.043,VALID,0.112112,VALID,23.733,VALID,139,VALID,0,
2014-08-29, 03:27:04,VALID,1010.65,VALID,0,INVALID,135.944,VALID,0,VALID,23.733,VALID,139,VALID,0,
2014-08-29, 03:28:04,VALID,1010.66,VALID,0,INVALID,135.838,VALID,0,VALID,23.7135,VALID,139,VALID,0,
2014-08-29, 03:29:04,VALID,1010.71,VALID,0,INVALID,135.754,VALID,0,VALID,23.7135,VALID,139,VALID,0,
2014-08-29, 03:30:04,VALID,1010.72,VALID,0,INVALID,135.708,VALID,0,VALID,23.694,VALID,139,VALID,0,
2014-08-29, 03:31:04,VALID,1010.75,VALID,0,INVALID,135.624,VALID,0,VALID,23.7135,VALID,139,VALID,0,
2014-08-29, 03:32:04,VALID,1010.76,VALID,0,INVALID,135.655,VALID,0,VALID,23.694,VALID,139,VALID,0,
2014-08-29, 03:33:04,VALID,1010.77,VALID,0,INVALID,135.563,VALID,0,VALID,23.694,VALID,139,VALID,0,
2014-08-29, 03:34:04,VALID,1010.79,VALID,0,INVALID,135.494,VALID,0,VALID,23.7135,VALID,139,VALID,0,
2014-08-29, 03:35:04,VALID,1010.79,VALID,0,INVALID,135.472,VALID,0,VALID,23.7135,VALID,139,VALID,0,
2014-08-29, 03:36:04,VALID,1010.8,VALID,0,INVALID,135.411,VALID,0,VALID,23.733,VALID,139,VALID,0,
2014-08-29, 03:37:04,VALID,1010.75,VALID,0,INVALID,135.426,VALID,0,VALID,23.7135,VALID,139,VALID,0,
2014-08-29, 03:38:04,VALID,1010.71,VALID,0,INVALID,135.456,VALID,0,VALID,23.694,VALID,139,VALID,0,
2014-08-29, 03:39:04,VALID,1010.69,VALID,0,INVALID,135.464,VALID,0,VALID,23.694,VALID,139,VALID,0,
2014-08-29, 03:40:04,VALID,1010.68,VALID,0,INVALID,135.586,VALID,0,VALID,23.694,VALID,139,VALID,0,
2014-08-29, 03:41:04,VALID,1010.64,VALID,0,INVALID,135.83,VALID,0,VALID,23.655,VALID,139,VALID,0,
2014-08-29, 03:42:04,VALID,1010.64,VALID,0,INVALID,136.158,VALID,0,VALID,23.6356,VALID,139,VALID,0,
2014-08-29, 03:43:04,VALID,1010.64,VALID,0,INVALID,136.326,VALID,0,VALID,23.655,VALID,139,VALID,0,
2014-08-29, 03:44:04,VALID,1010.68,VALID,0,INVALID,136.432,VALID,0,VALID,23.6356,VALID,139,VALID,0,
2014-08-29, 03:45:04,VALID,1010.67,VALID,0,INVALID,136.6,VALID,0,VALID,23.6143,VALID,139,VALID,0,
2014-08-29, 03:46:04,VALID,1010.71,VALID,0,INVALID,136.661,VALID,0.112112,VALID,23.6356,VALID,139,VALID,0,
2014-08-29, 03:47:04,VALID,1010.73,VALID,0,INVALID,136.92,VALID,0,VALID,23.6161,VALID,139,VALID,0,
2014-08-29, 03:48:04,VALID,1010.74,VALID,0,INVALID,137.149,VALID,0,VALID,23.5966,VALID,139,VALID,0,
2014-08-29, 03:49:04,VALID,1010.73,VALID,0,INVALID,137.195,VALID,0,VALID,23.5966,VALID,139,VALID,0,
2014-08-29, 03:50:04,VALID,1010.74,VALID,0,INVALID,137.378,VALID,0,VALID,23.6161,VALID,139,VALID,0,
2014-08-29, 03:51:04,VALID,1010.75,VALID,0,INVALID,137.454,VALID,0,VALID,23.6161,VALID,139,VALID,0,
2014-08-29, 03:52:04,VALID,1010.76,VALID,0,INVALID,137.462,VALID,0,VALID,23.5948,VALID,139,VALID,0,
2014-08-29, 03:53:04,VALID,1010.79,VALID,0,INVALID,137.561,VALID,0,VALID,23.5948,VALID,139,VALID,0,
2014-08-29, 03:54:04,VALID,1010.81,VALID,0,INVALID,137.492,VALID,0,VALID,23.5966,VALID,139,VALID,0,